Вернуться в каталог

CZ-6A DEB

АктивенPO
NORAD 60755·DEBRIS·🇨🇳 China

Запущен Aug 6, 2024 с Taiyuan Satellite Launch Center

Loading…

Ближайшие Пролёты (ближайшие 24 часа)

TLE

СвежийSource: Space-Track

Эпоха: Sep 14, 2026, 09:49 UTC

1 60755U 24140EE  26257.40943061  .00000801  00000-0  46295-3 0  9991
2 60755  88.7780 247.7062 0128124 305.1723  53.7510 14.04121546105892

Отслеживайте CZ-6A DEB в реальном времени с AllMySat

Download on the App Store